Roseburg, OR

10:22 PM PDT on June 22, 2018 (GMT -0700)
Roseburg Regional

Weather History for KRBG - August, 2016

Change the Weather History Date:

Friday, August 19, 2016

  Actual Average Record
Temperature  
Mean Temperature 86 °F 70 °F  
Max Temperature 107 °F 84 °F 107 °F (2016)
Min Temperature 64 °F 55 °F 44 °F (1964)
Degree Days  
Heating Degree Days 0 0  
Month to date heating degree days 0 0  
Since 1 June heating degree days 67 94  
Since 1 July heating degree days 3 11  
Cooling Degree Days 21 5  
Month to date cooling degree days 187 113  
Year to date cooling degree days 560 356  
Since 1 June cooling degree days 517 336  
Growing Degree Days 35 (Base 50)    
Moisture  
Dew Point 54 °F    
Average Humidity 43    
Maximum Humidity 73    
Minimum Humidity 13    
Precipitation  
Precipitation 0.00 in 0.02 in 0.96 in (2007)
Month to date precipitation 0.00 0.20  
Year to date precipitation 19.26 19.38  
Sea Level Pressure  
Sea Level Pressure 29.84 in    
Wind  
Wind Speed 3 mph (North)    
Max Wind Speed 17 mph    
Max Gust Speed 20 mph    
Visibility 10 miles    
Events      
T = Trace of Precipitation, MM = Missing Value Source: NWS Daily Summary

Daily Weather History Graph

Daily Weather History Graph

Search for Another Location

Airport or City:

Astronomy

Aug. 19, 2016 Rise Set
Actual Time 6:23 AM PDT 8:09 PM PDT
Civil Twilight 5:53 AM PDT 8:39 PM PDT
Nautical Twilight 5:16 AM PDT 9:16 PM PDT
Astronomical Twilight 4:36 AM PDT 9:55 PM PDT
Moon 9:02 PM PDT (8/19) 7:51 AM PDT (8/19)
Length of Visible Light 14h 45m
Length of Day
13h 45m
Full, 97% of the Moon is Illuminated
Aug 19
Full
Aug 24
Last Quarter
Sep 1
New
Sep 9
First Quarter
Sep 16
Full

Hourly Weather History & Observations

Time (PDT) Temp. Heat Index Dew Point Humidity Pressure Visibility Wind Dir Wind Speed Gust Speed Precip Events Conditions
12:53 AM 73.9 °F - 55.9 °F 53% 29.85 in 10.0 mi Calm Calm - N/A   Clear
1:53 AM 72.0 °F - 55.9 °F 57% 29.85 in 10.0 mi Calm Calm - N/A   Clear
2:53 AM 70.0 °F - 55.9 °F 61% 29.86 in 10.0 mi Calm Calm - N/A   Clear
3:53 AM 68.0 °F - 55.9 °F 65% 29.86 in 10.0 mi Calm Calm - N/A   Clear
4:53 AM 66.9 °F - 55.9 °F 68% 29.86 in 10.0 mi Calm Calm - N/A   Clear
5:53 AM 66.0 °F - 55.9 °F 70% 29.87 in 10.0 mi Calm Calm - N/A   Clear
6:53 AM 64.9 °F - 55.9 °F 73% 29.88 in 10.0 mi Calm Calm - N/A   Clear
7:53 AM 66.0 °F - 55.9 °F 70% 29.90 in 10.0 mi Calm Calm - N/A   Clear
8:53 AM 72.0 °F - 55.9 °F 57% 29.90 in 10.0 mi Calm Calm - N/A   Clear
9:53 AM 77.0 °F - 55.9 °F 48% 29.89 in 10.0 mi Calm Calm - N/A   Clear
10:53 AM 82.0 °F 81.7 °F 57.0 °F 42% 29.88 in 10.0 mi Calm Calm - N/A   Clear
11:53 AM 88.0 °F 86.5 °F 55.9 °F 34% 29.86 in 10.0 mi Variable 3.5 mph - N/A   Clear
12:53 PM 93.9 °F 92.0 °F 55.0 °F 27% 29.84 in 10.0 mi ENE 3.5 mph - N/A   Clear
1:53 PM 99.0 °F 96.9 °F 54.0 °F 22% 29.82 in 10.0 mi Variable 3.5 mph - N/A   Clear
2:53 PM 104.0 °F - 46.0 °F 14% 29.79 in 10.0 mi Variable 3.5 mph - N/A   Clear
3:53 PM 106.0 °F - 44.1 °F 12% 29.78 in 10.0 mi NNE 8.1 mph - N/A   Clear
4:53 PM 106.0 °F - 44.1 °F 12% 29.76 in 10.0 mi Variable 6.9 mph - N/A   Clear
5:53 PM 106.0 °F - 46.9 °F 14% 29.76 in 10.0 mi North 16.1 mph 19.6 mph N/A   Clear
6:53 PM 100.9 °F 98.7 °F 53.1 °F 20% 29.77 in 10.0 mi NNW 9.2 mph - N/A   Clear
7:53 PM 96.1 °F 94.5 °F 55.9 °F 26% 29.78 in 10.0 mi NW 10.4 mph - N/A   Clear
8:53 PM 91.0 °F 88.9 °F 55.0 °F 29% 29.81 in 10.0 mi NNW 5.8 mph - N/A   Clear
9:53 PM 87.1 °F 85.7 °F 55.9 °F 35% 29.83 in 10.0 mi Calm Calm - N/A   Clear
10:53 PM 81.0 °F 80.8 °F 55.9 °F 42% 29.84 in 10.0 mi Calm Calm - N/A   Clear
11:53 PM 77.0 °F - 55.0 °F 47% 29.86 in 10.0 mi Calm Calm - N/A   Clear